SL-19 DEB, 23493

Orbit data source: Space-Track

SL-19 DEB, 23493 is space debris in LEO originally from a launch on Mon, 26 Dec 1994 UTC launched from the Tyuratam Missile And Space Complex (TTMTR). Debris objects in space refer to the collection of defunct objects orbiting the Earth. Examples of debris include non-operational satellites, rocket bodies, and fragments generated from explosions, collisions, or faulty payload assembly.

Loading next visibility...
Identifier
23493, 1994-085R
Orbit
LEO
Country
Flag of CISCIS
Related business
Manufacturer
Unknown
Mission
Spacecraft
Bus & Motor
Unknown
Mass
Unknown
Launch date (UTC)
1994-12-26 (31 years ago)
Launch vehicle
Unknown
Launch site
Tyuratam Missile And Space Complex (TTMTR)
Object type
Payload
Rocket body
Debris
Shape & HBR
Unknown shape, 0.1 m
Radar Cross Section
Medium (>0.1 m² and <1 m²)

Expand to show TLE details & history
Last TLE update: 4 weeks ago

TLE from 4 weeks ago
0 SL-19 DEB
1 23493U 94085R   26148.34660050 -.00000022  00000-0  56114-3 0  9997
2 23493  64.9405 268.1268 0144375 184.2747 206.9905 11.31940965298213
Epoch: 2026-05-28T08:19Z
TLE epoch observation values (Epoch: 2026-05-28T08:19:06.283Z)
Latitude
27.44331°
Longitude
-88.55469°
Altitude
2,111.114 km
Speed
6.811 km/s
True Right ascension
18h 48m 27s
True Declination
27° 19' 31"
Sunlit
Object was in daylight at epoch
Visualization orbit readout
Latitude
Unknown
Longitude
Unknown
Altitude
Unknown
Speed
Unknown
Apparent Right ascension
Unknown
Apparent Declination
Unknown
Sunlit
N/A
Visualization observer readout
Local Sidereal Time
00:55:53
Azimuth
Unknown
Elevation
Unknown
Doppler factor
Unknown
Orbital elements
Apogee altitude
2,120.487 km
Perigee altitude
1,878.582 km
Semi-major axis
8,377.672 km
Eccentricity
0.01444
Inclination
64.9405°
RAAN
268.1268°
Arg. of periapsis
184.2747°
True anomaly
206.25157°
Mean anomaly
206.9905°
Eccentric anomaly
206.61985°
Mean motion
2.83047 °/min
Orbital period
127.19 mins
BSTAR
0.00056114
Loading maneuver chart data...
Computing Atmospheric mass density...
Loading historical data...
Loading historical data...
Loading historical data...
Loading historical data...
Loading historical data...
Loading historical data...
Loading historical data...

Documentation

Showing up to 5 results
|